,,PA_Meas_PMT16A,,PR_Meas_QMR101_102,,RH_Meas_QMH101,,SR_Meas_QMS101,,TA_Meas_QMH101,,GenWind,,GenWind,
time,status,PA,status,PR,status,RH,status,SR,status,TA,status,DirAvg,status,SpdAvg,
2014-07-11, 06:50:04,VALID,916.986,VALID,0,VALID,97.2824,VALID,24.1743,VALID,19.1207,VALID,130,VALID,1.02813,
2014-07-11, 06:51:04,VALID,916.981,VALID,0,VALID,97.29,VALID,25.1412,VALID,19.0998,VALID,136,VALID,1.04688,
2014-07-11, 06:52:04,VALID,916.938,VALID,0,VALID,97.2672,VALID,26.2156,VALID,19.1193,VALID,137,VALID,1.58984,
2014-07-11, 06:53:04,VALID,916.93,VALID,0,VALID,97.2824,VALID,27.1826,VALID,19.0983,VALID,142,VALID,1.39336,
2014-07-11, 06:54:04,VALID,916.898,VALID,0,VALID,97.29,VALID,28.1496,VALID,19.0983,VALID,147,VALID,1.54492,
2014-07-11, 06:55:04,VALID,916.875,VALID,0,VALID,97.2824,VALID,29.224,VALID,19.0983,VALID,142,VALID,1.37266,
2014-07-11, 06:56:04,VALID,916.897,VALID,0,VALID,97.2748,VALID,30.4058,VALID,19.0983,VALID,140,VALID,1.38711,
2014-07-11, 06:57:04,VALID,916.936,VALID,0,VALID,97.2824,VALID,31.4803,VALID,19.1193,VALID,138,VALID,1.36602,
2014-07-11, 06:58:04,VALID,916.914,VALID,0,VALID,97.2824,VALID,32.6621,VALID,19.0983,VALID,137,VALID,1.17539,
2014-07-11, 06:59:04,VALID,916.975,VALID,0.2,VALID,97.2672,VALID,33.844,VALID,19.1388,VALID,131,VALID,1.49414,
2014-07-11, 07:00:04,VALID,916.985,VALID,0,VALID,97.2672,VALID,35.1333,VALID,19.1373,VALID,137,VALID,1.29883,
2014-07-11, 07:01:04,VALID,917.013,VALID,0,VALID,97.2672,VALID,36.53,VALID,19.1373,VALID,125,VALID,0.769922,
2014-07-11, 07:02:04,VALID,917.024,VALID,0,VALID,97.2748,VALID,37.9267,VALID,19.1373,VALID,130,VALID,1.35898,
2014-07-11, 07:03:04,VALID,917.03,VALID,0,VALID,97.2443,VALID,39.4309,VALID,19.1763,VALID,128,VALID,0.640625,
2014-07-11, 07:04:04,VALID,917.04,VALID,0,VALID,97.2595,VALID,40.8276,VALID,19.1778,VALID,126,VALID,1.05664,
2014-07-11, 07:05:04,VALID,917.044,VALID,0,VALID,97.2595,VALID,42.5467,VALID,19.1763,VALID,136,VALID,0.695313,
2014-07-11, 07:06:04,VALID,917.08,VALID,0,VALID,97.2595,VALID,44.0509,VALID,19.1763,VALID,137,VALID,0.966016,
2014-07-11, 07:07:04,VALID,917.105,VALID,0,VALID,97.2595,VALID,45.7699,VALID,19.1958,VALID,136,VALID,0.951953,
2014-07-11, 07:08:04,VALID,917.086,VALID,0,VALID,97.2595,VALID,47.3815,VALID,19.1958,VALID,136,VALID,0.757813,
2014-07-11, 07:09:04,VALID,917.105,VALID,0,VALID,97.2519,VALID,49.1006,VALID,19.1958,VALID,137,VALID,0.830859,
2014-07-11, 07:10:04,VALID,917.084,VALID,0,VALID,97.2367,VALID,50.8197,VALID,19.2153,VALID,137,VALID,0.619141,
2014-07-11, 07:11:04,VALID,917.144,VALID,0,VALID,97.2214,VALID,52.6462,VALID,19.2348,VALID,138,VALID,0.873047,
2014-07-11, 07:12:04,VALID,917.164,VALID,0,VALID,97.2138,VALID,54.3652,VALID,19.2753,VALID,138,VALID,0.729688,
2014-07-11, 07:13:04,VALID,917.201,VALID,0,VALID,97.2062,VALID,56.0843,VALID,19.2738,VALID,140,VALID,0.550391,
2014-07-11, 07:14:04,VALID,917.198,VALID,0,VALID,97.1986,VALID,57.6959,VALID,19.2738,VALID,143,VALID,0.705078,
2014-07-11, 07:15:04,VALID,917.246,VALID,0,VALID,97.1909,VALID,59.3075,VALID,19.3338,VALID,143,VALID,0.859375,
2014-07-11, 07:16:04,VALID,917.252,VALID,0,VALID,97.1909,VALID,61.0266,VALID,19.3323,VALID,143,VALID,0.533984,
2014-07-11, 07:17:04,VALID,917.247,VALID,0,VALID,97.1986,VALID,62.5308,VALID,19.3518,VALID,143,VALID,0.78125,
2014-07-11, 07:18:04,VALID,917.265,VALID,0,VALID,97.1833,VALID,64.0349,VALID,19.3713,VALID,150,VALID,0.842578,
2014-07-11, 07:19:04,VALID,917.241,VALID,0,VALID,97.1757,VALID,65.5391,VALID,19.3908,VALID,163,VALID,0.930078,
2014-07-11, 07:20:04,VALID,917.246,VALID,0,VALID,97.1909,VALID,66.9358,VALID,19.3908,VALID,163,VALID,0.842969,
2014-07-11, 07:21:04,VALID,917.241,VALID,0,VALID,97.1452,VALID,68.3326,VALID,19.4298,VALID,163,VALID,0.646484,
2014-07-11, 07:22:04,VALID,917.211,VALID,0,VALID,97.1376,VALID,69.9442,VALID,19.4298,VALID,163,VALID,0.376953,
2014-07-11, 07:23:04,VALID,917.216,VALID,0,VALID,97.1452,VALID,71.4484,VALID,19.4688,VALID,163,VALID,0.633203,
2014-07-11, 07:24:04,VALID,917.245,VALID,0,VALID,97.1299,VALID,73.06,VALID,19.4883,VALID,163,VALID,0.871875,
2014-07-11, 07:25:04,VALID,917.206,VALID,0,VALID,97.1299,VALID,74.8865,VALID,19.4883,VALID,163,VALID,0.744141,
2014-07-11, 07:26:04,VALID,917.25,VALID,0,VALID,97.1376,VALID,76.6055,VALID,19.4883,VALID,163,VALID,0.781641,
2014-07-11, 07:27:04,VALID,917.231,VALID,0,VALID,97.1147,VALID,78.432,VALID,19.5078,VALID,163,VALID,0.736328,
2014-07-11, 07:28:04,VALID,917.215,VALID,0,VALID,97.1147,VALID,80.2585,VALID,19.5078,VALID,163,VALID,0.661328,
2014-07-11, 07:29:04,VALID,917.278,VALID,0,VALID,97.0994,VALID,82.2999,VALID,19.5273,VALID,162,VALID,0.7875,
2014-07-11, 07:30:04,VALID,917.231,VALID,0,VALID,97.0994,VALID,84.4487,VALID,19.5468,VALID,156,VALID,0.776563,
2014-07-11, 07:31:04,VALID,917.248,VALID,0,VALID,97.0842,VALID,86.705,VALID,19.5663,VALID,156,VALID,0.800391,
2014-07-11, 07:32:04,VALID,917.227,VALID,0,VALID,97.0766,VALID,88.9613,VALID,19.5663,VALID,156,VALID,0.760156,
2014-07-11, 07:33:04,VALID,917.232,VALID,0,VALID,97.0613,VALID,91.2175,VALID,19.5843,VALID,155,VALID,0.785937,
2014-07-11, 07:34:04,VALID,917.22,VALID,0,VALID,97.069,VALID,93.5812,VALID,19.6053,VALID,150,VALID,0.990625,
2014-07-11, 07:35:04,VALID,917.184,VALID,0,VALID,97.0308,VALID,96.0524,VALID,19.6053,VALID,145,VALID,1.03047,
2014-07-11, 07:36:04,VALID,917.162,VALID,0,VALID,97.0385,VALID,98.4161,VALID,19.6248,VALID,141,VALID,1.1043,
2014-07-11, 07:37:04,VALID,917.176,VALID,0,VALID,97.0308,VALID,100.78,VALID,19.6443,VALID,134,VALID,0.660937,
2014-07-11, 07:38:04,VALID,917.181,VALID,0,VALID,97.008,VALID,103.144,VALID,19.6443,VALID,131,VALID,1.48828,
2014-07-11, 07:39:04,VALID,917.165,VALID,0,VALID,96.9851,VALID,105.507,VALID,19.6833,VALID,128,VALID,1.43047,
2014-07-11, 07:40:04,VALID,917.163,VALID,0,VALID,96.9622,VALID,108.086,VALID,19.6833,VALID,132,VALID,1.49141,
2014-07-11, 07:41:04,VALID,917.156,VALID,0,VALID,96.9394,VALID,110.772,VALID,19.7028,VALID,127,VALID,1.24023,
2014-07-11, 07:42:04,VALID,917.196,VALID,0,VALID,96.9241,VALID,113.458,VALID,19.7223,VALID,106,VALID,1.01367,
2014-07-11, 07:43:04,VALID,917.231,VALID,0,VALID,96.8784,VALID,115.822,VALID,19.7418,VALID,124,VALID,0.826953,
2014-07-11, 07:44:04,VALID,917.247,VALID,0,VALID,96.8784,VALID,117.863,VALID,19.7418,VALID,128,VALID,1.65977,
2014-07-11, 07:45:04,VALID,917.251,VALID,0,VALID,96.8403,VALID,119.689,VALID,19.7613,VALID,133,VALID,1.46406,
2014-07-11, 07:46:04,VALID,917.265,VALID,0,VALID,96.8326,VALID,121.301,VALID,19.7808,VALID,127,VALID,1.0957,
2014-07-11, 07:47:04,VALID,917.304,VALID,0,VALID,96.7945,VALID,122.698,VALID,19.8198,VALID,114,VALID,0.997656,
2014-07-11, 07:48:04,VALID,917.341,VALID,0,VALID,96.8098,VALID,124.202,VALID,19.8198,VALID,139,VALID,1.2332,
2014-07-11, 07:49:04,VALID,917.347,VALID,0,VALID,96.7793,VALID,126.458,VALID,19.8393,VALID,141,VALID,1.38516,
2014-07-11, 07:50:04,VALID,917.389,VALID,0,VALID,96.7411,VALID,129.037,VALID,19.8603,VALID,148,VALID,0.878125,
2014-07-11, 07:51:04,VALID,917.407,VALID,0,VALID,96.7107,VALID,131.401,VALID,19.8408,VALID,155,VALID,1.38008,
2014-07-11, 07:52:04,VALID,917.427,VALID,0,VALID,96.7107,VALID,133.334,VALID,19.8603,VALID,157,VALID,1.20859,
2014-07-11, 07:53:04,VALID,917.431,VALID,0,VALID,96.642,VALID,135.483,VALID,19.8603,VALID,152,VALID,1.36211,
2014-07-11, 07:54:04,VALID,917.442,VALID,0,VALID,96.6115,VALID,137.954,VALID,19.8198,VALID,155,VALID,1.23398,
2014-07-11, 07:55:04,VALID,917.486,VALID,0,VALID,96.5887,VALID,139.996,VALID,19.8408,VALID,151,VALID,1.37734,
2014-07-11, 07:56:04,VALID,917.497,VALID,0,VALID,96.5429,VALID,141.822,VALID,19.8003,VALID,152,VALID,1.44258,
2014-07-11, 07:57:04,VALID,917.474,VALID,0,VALID,96.5353,VALID,143.434,VALID,19.8213,VALID,152,VALID,1.33945,
2014-07-11, 07:58:04,VALID,917.499,VALID,0,VALID,96.4972,VALID,145.153,VALID,19.8213,VALID,155,VALID,1.37773,
2014-07-11, 07:59:04,VALID,917.522,VALID,0,VALID,96.4896,VALID,146.872,VALID,19.8213,VALID,127,VALID,0.833984,
2014-07-11, 08:00:04,VALID,917.561,VALID,0,VALID,96.4972,VALID,148.376,VALID,19.8603,VALID,151,VALID,0.641406,
2014-07-11, 08:01:04,VALID,917.558,VALID,0,VALID,96.4972,VALID,149.666,VALID,19.8798,VALID,147,VALID,1.32695,
2014-07-11, 08:02:04,VALID,917.559,VALID,0,VALID,96.4896,VALID,150.095,VALID,19.8798,VALID,157,VALID,0.808594,
2014-07-11, 08:03:04,VALID,917.593,VALID,0,VALID,96.4591,VALID,150.847,VALID,19.9383,VALID,150,VALID,0.857422,
2014-07-11, 08:04:04,VALID,917.585,VALID,0,VALID,96.4667,VALID,151.385,VALID,19.9578,VALID,164,VALID,1.18633,
2014-07-11, 08:05:04,VALID,917.598,VALID,0,VALID,96.4286,VALID,150.418,VALID,19.9368,VALID,147,VALID,1.12695,
2014-07-11, 08:06:04,VALID,917.593,VALID,0,VALID,96.3905,VALID,149.021,VALID,19.9368,VALID,153,VALID,1.05703,
2014-07-11, 08:07:04,VALID,917.575,VALID,0,VALID,96.3295,VALID,149.128,VALID,19.9773,VALID,147,VALID,0.947656,
2014-07-11, 08:08:04,VALID,917.547,VALID,0,VALID,96.2685,VALID,150.632,VALID,19.9773,VALID,150,VALID,0.885156,
2014-07-11, 08:09:04,VALID,917.541,VALID,0,VALID,96.1999,VALID,152.244,VALID,19.9773,VALID,138,VALID,1.71484,
2014-07-11, 08:10:04,VALID,917.56,VALID,0,VALID,96.1694,VALID,154.285,VALID,20.0358,VALID,148,VALID,1.33906,
2014-07-11, 08:11:04,VALID,917.535,VALID,0,VALID,96.1694,VALID,156.434,VALID,20.0553,VALID,149,VALID,1.3957,
2014-07-11, 08:12:04,VALID,917.553,VALID,0,VALID,96.1084,VALID,159.013,VALID,20.0538,VALID,158,VALID,1.36758,
2014-07-11, 08:13:04,VALID,917.55,VALID,0,VALID,96.0474,VALID,161.162,VALID,20.0749,VALID,155,VALID,0.673047,
2014-07-11, 08:14:04,VALID,917.547,VALID,0,VALID,96.0322,VALID,162.666,VALID,20.1334,VALID,152,VALID,0.955469,
2014-07-11, 08:15:04,VALID,917.539,VALID,0,VALID,95.9636,VALID,163.203,VALID,20.1318,VALID,157,VALID,0.912109,
2014-07-11, 08:16:04,VALID,917.553,VALID,0,VALID,95.8492,VALID,164.17,VALID,20.1919,VALID,157,VALID,1.27734,
2014-07-11, 08:17:04,VALID,917.547,VALID,0,VALID,95.7654,VALID,165.889,VALID,20.1708,VALID,148,VALID,1.59492,
2014-07-11, 08:18:04,VALID,917.539,VALID,0,VALID,95.6662,VALID,167.393,VALID,20.1708,VALID,151,VALID,1.38633,
2014-07-11, 08:19:04,VALID,917.518,VALID,0,VALID,95.6205,VALID,167.823,VALID,20.2098,VALID,156,VALID,1.02109,
2014-07-11, 08:20:04,VALID,917.543,VALID,0,VALID,95.5595,VALID,168.145,VALID,20.2504,VALID,135,VALID,1.42852,
2014-07-11, 08:21:04,VALID,917.534,VALID,0,VALID,95.4452,VALID,169.327,VALID,20.2114,VALID,151,VALID,1.70547,
2014-07-11, 08:22:04,VALID,917.511,VALID,0,VALID,95.2927,VALID,171.906,VALID,20.2504,VALID,153,VALID,1.4168,
2014-07-11, 08:23:04,VALID,917.496,VALID,0,VALID,95.2622,VALID,173.517,VALID,20.2684,VALID,149,VALID,1.21445,
2014-07-11, 08:24:04,VALID,917.498,VALID,0,VALID,95.1783,VALID,175.022,VALID,20.3089,VALID,160,VALID,1.27461,
2014-07-11, 08:25:04,VALID,917.514,VALID,0,VALID,95.1174,VALID,177.493,VALID,20.3674,VALID,163,VALID,0.876953,
2014-07-11, 08:26:04,VALID,917.518,VALID,0,VALID,94.8887,VALID,179.964,VALID,20.3464,VALID,161,VALID,1.22852,
2014-07-11, 08:27:04,VALID,917.527,VALID,0,VALID,94.4313,VALID,182.435,VALID,20.3854,VALID,183,VALID,0.897266,
2014-07-11, 08:28:04,VALID,917.565,VALID,0,VALID,94.2407,VALID,184.154,VALID,20.4829,VALID,144,VALID,0.694922,
2014-07-11, 08:29:04,VALID,917.568,VALID,0,VALID,93.8824,VALID,187.7,VALID,20.4634,VALID,150,VALID,1.42969,
2014-07-11, 08:30:04,VALID,917.625,VALID,0,VALID,93.6994,VALID,196.832,VALID,20.5024,VALID,147,VALID,0.830859,
2014-07-11, 08:31:04,VALID,917.634,VALID,0,VALID,93.4173,VALID,206.394,VALID,20.543,VALID,134,VALID,1.08477,
2014-07-11, 08:32:04,VALID,917.598,VALID,0,VALID,93.2801,VALID,211.014,VALID,20.5609,VALID,159,VALID,1.49023,
